Regional Weather Roundup
Issued by NWS

Home | Current Version | Previous Version | Graphics & Text | Print | Product List | Glossary On
Versions: 1 2 3 4 5 6 7 8 9 10 11 12 13 14 15 16 17 18 19 20 21 22 23 24 25 26 27
000
ASUS45 KCYS 212210
RWRWY

WYOMING REGIONAL WEATHER ROUNDUP
NATIONAL WEATHER SERVICE CHEYENNE WY
400 PM MDT THU SEP 21 2017

NOTE:  "FAIR" INDICATES FEW OR NO CLOUDS BELOW 12,000 FEET
WITH NO SIGNIFICANT WEATHER AND/OR OBSTRUCTIONS TO VISIBILITY.

WYZ001-212300-
YELLOWSTONE NATIONAL PARK

CITY           SKY/WX    TMP DP  RH WIND       PRES   REMARKS
LK YELLOWSTONE NOT AVBL
W YELLOWSTONE  NOT AVBL

$$
WYZ002>013-054>058-071-098>099-212300-
NORTHERN WYOMING

CITY           SKY/WX    TMP DP  RH WIND       PRES   REMARKS
JACKSON        CLOUDY    38  37  97 N8        29.81S WCI  32
CODY           LGT RAIN  42  38  85 N12       29.84R
GREYBULL       FAIR      54  40  59 NW22      29.77R
WORLAND        CLOUDY    57  43  59 NW14      29.75F
SHERIDAN       CLOUDY    51  41  68 NW13      29.83R
BUFFALO        FAIR      53  39  59 NW13      29.82S
GILLETTE       FAIR      65  40  39 N14       29.75F
HULETT         FAIR      66  37  34 N6        29.78R
NEWCASTLE      FAIR      79  32  18 NW7       29.69F

$$
WYZ014>020-022>026-101>103-212300-
CENTRAL WYOMING

CITY           SKY/WX    TMP DP  RH WIND       PRES   REMARKS
BIG PINEY      PTSUNNY   64  35  34 SW14G25   29.73F
PINEDALE       CLOUDY    59  34  38 S8        29.75S
DUBOIS         MOCLDY    48  39  71 NW6       29.76F
LANDER           N/A    N/A N/A N/A MISG      29.66F
RIVERTON       FAIR      64  41  42 NE20G26   29.66F
CASPER         FAIR      75  34  22 N12       29.68F
DOUGLAS        FAIR      87  19   8 SW18G29   29.66F

$$
WYZ021-027>030-104>119-212300-
SOUTHERN WYOMING

CITY           SKY/WX    TMP DP  RH WIND       PRES   REMARKS
EVANSTON       PTSUNNY   62  38  40 W17G25    29.68F
KEMMERER       LGT RAIN  59  36  41 CALM      29.72F
FORT BRIDGER   CLOUDY    63  38  40 NE7       29.72F
ROCK SPRINGS   FAIR      71  29  21 S25G40    29.68F
DIXON          FAIR      77  21  12 S16G36    29.77F
RAWLINS        FAIR      75  22  13 S25G39    29.75F
SARATOGA       FAIR      75  18  11 SW26G37   29.79F
LARAMIE        FAIR      77  14   9 SW25G38   29.81F
CHEYENNE       FAIR      82  17   9 SE15G22   29.77F
TORRINGTON     FAIR      87  38  17 E17G25    29.63F
PINE BLUFFS    FAIR      86  23  10 SW9G16    29.72F

$$




USA.gov is the U.S. government's official web portal to all federal, state and local government web resources and services.